Simultaneous Nadir Overpasses (SNOs) Predictions

Prediction of SNOs between LANDSAT-8 and METOP-B Satellite Orbit:

Table of predicted SNOs for the next 14.0 days since TLE Epoch: 8/30/2014
Index Date (LANDSAT-8) Time (LANDSAT-8) Lat,Lon (LANDSAT-8) SZA (LANDSAT-8 ) Date (METOP-B) Time (METOP-B) Lat,Lon (METOP-B) SZA (METOP-B ) Distance(km) Time Diff (sec)
1 08/30/2014 13:05:13 -81.16,-155.84 105.64 08/30/2014 13:04:21 -81.16,-155.98 105.67 2.44 52
2 08/30/2014 13:54:38 81.18, 12.26 74.45 08/30/2014 13:54:59 81.18, 12.16 74.45 1.67 21
3 09/02/2014 08:39:29 -81.16, -89.26 104.58 09/02/2014 08:38:40 -81.17, -89.10 104.58 2.89 49
4 09/02/2014 09:28:54 81.19, 78.83 75.50 09/02/2014 09:29:19 81.19, 78.66 75.50 2.87 25
5 09/05/2014 04:13:48 -81.16, -22.90 103.54 09/05/2014 04:13:02 -81.16, -23.01 103.56 1.81 46
6 09/05/2014 05:03:13 81.19, 145.17 76.55 09/05/2014 05:03:40 81.19, 145.13 76.56 0.69 27
7 09/07/2014 23:48:08 -81.17, 43.61 102.45 09/07/2014 23:47:23 -81.16, 43.44 102.49 3.02 45
8 09/08/2014 00:37:33 81.19,-148.33 77.63 09/08/2014 00:38:01 81.19,-148.43 77.63 1.68 28
9 09/10/2014 19:22:28 -81.18, 110.27 101.33 09/10/2014 19:21:42 -81.18, 110.22 101.36 1.07 46




NCC Satellite Simultaneous Nadir Overpasses (SNOs) Prediction Service
